Temperature
19 17 17 18 18 19 20 19 19 19 20 20 19 19 19 19 19 18 18 18 19 19 19 19 19 19 19 18 18 18 18 17 17 17 16 16 16 16 15 15 15 15 15 15
18 18 19 19 19 19 19 19 19 19 20 20 19 19 19 18 18 18 18 18 18 18 19 18 19 19 18 18 18 18 17 17 17 16 16 16 16 16 15 15 15 15 15 15
19 19 20 20 20 20 19 19 19 19 19 19 19 19 19 19 19 18 18 18 18 18 18 18 18 18 18 18 17 17 17 17 16 16 16 16 16 15 15 15 15 15 15 15
18 19 20 20 20 20 19 20 20 19 18 17 19 17 18 18 17 18 18 18 18 18 18 18 18 18 17 17 17 17 17 16 16 16 16 16 16 15 15 15 15 15 15 15
19 19 20 20 20 21 20 20 19 19 18 17 17 17 17 17 17 17 17 17 18 18 18 18 18 18 17 17 17 16 16 16 16 16 16 16 15 15 15 15 15 15 15 15
19 20 20 20 21 21 20 19 18 16 16 17 17 17 17 16 17 17 17 17 17 18 17 17 17 17 17 16 16 16 16 16 16 16 15 15 15 15 15 15 15 15 14 14
19 20 20 21 20 20 19 18 17 17 16 16 17 17 17 17 17 17 17 17 17 18 17 17 17 17 17 16 16 16 16 16 16 15 15 15 15 15 15 15 15 14 14 14
18 19 20 20 20 19 19 18 17 17 17 16 17 17 17 17 17 17 17 17 17 17 17 17 17 17 16 16 16 16 16 16 15 15 15 15 15 15 15 15 14 14 14 14
18 18 20 20 20 19 18 17 17 16 16 16 16 17 17 17 16 16 16 16 16 17 17 17 17 17 16 16 16 16 16 15 15 15 15 15 15 14 14 14 14 14 14 14
18 18 19 20 20 19 18 16 15 16 16 17 17 17 17 17 16 15 15 15 16 16 16 16 17 17 17 16 16 16 16 15 15 15 15 15 15 14 14 14 14 14 14 14
18 18 19 19 19 18 17 17 15 14 15 16 16 17 17 17 16 15 15 15 16 16 16 16 16 17 16 16 16 16 15 15 15 15 14 14 14 14 14 14 14 14 14 14
17 16 16 18 19 19 18 17 15 16 16 15 15 16 17 16 15 15 15 15 16 16 16 16 16 16 16 16 16 15 15 15 15 14 14 14 14 14 14 14 14 14 14 14
17 16 16 17 18 18 18 17 16 15 14 14 15 17 16 15 15 15 15 15 15 16 16 16 16 16 16 16 15 15 15 15 15 14 14 14 14 14 14 14 14 14 14 14
17 15 16 17 17 17 17 17 16 15 15 15 15 16 16 16 15 15 15 15 15 15 15 15 15 16 15 15 15 15 15 15 14 14 14 14 14 14 14 14 14 14 14 14
16 16 16 16 17 17 18 17 16 16 15 16 16 16 16 15 15 15 15 15 15 15 15 15 15 15 15 15 15 15 15 15 14 14 14 14 14 14 14 13 13 13 13 13
14 15 16 16 17 17 17 17 17 16 16 16 16 16 15 15 15 15 15 15 15 15 15 15 15 15 15 15 15 15 15 15 14 14 14 14 14 14 14 13 13 13 13 13
13 14 15 15 16 17 16 16 17 16 16 16 16 16 15 15 15 15 15 15 15 16 16 16 16 16 15 15 15 15 15 14 14 14 14 14 14 13 13 13 13 13 13 13
13 13 12 14 16 16 16 16 16 16 15 15 15 15 15 15 15 16 16 16 15 16 16 16 16 16 15 15 15 15 14 14 14 14 14 14 13 13 13 13 13 13 13 13
12 13 12 13 14 15 16 16 15 15 15 15 14 14 14 15 15 15 16 16 16 16 17 16 16 16 15 15 15 14 14 14 14 14 14 13 13 13 13 13 13 13 13 13
12 12 12 13 14 15 15 16 16 15 15 15 14 14 14 14 14 14 16 16 16 16 16 16 16 16 15 15 15 14 14 14 14 13 13 13 13 13 13 13 12 12 12 12
12 12 12 13 14 14 14 14 16 15 14 14 14 14 14 13 14 15 16 16 16 16 16 16 16 15 15 15 15 14 14 14 14 13 13 13 13 13 12 12 12 12 12 12
12 12 12 12 13 14 14 14 14 13 14 14 14 14 14 15 15 15 15 16 16 16 16 16 15 15 15 15 14 14 14 14 14 13 13 13 13 12 12 12 12 12 12 12
11 11 11 11 12 12 12 13 14 14 14 14 14 14 15 15 15 15 15 15 15 15 15 15 15 15 14 14 14 14 14 14 13 13 13 13 13 12 12 12 12 12 12 12
10 10 10 10 11 12 12 13 13 14 14 14 14 14 15 15 15 15 15 15 15 15 15 15 14 14 14 14 14 14 14 13 13 13 13 13 13 12 12 12 12 12 12 12
9 10 10 10 11 11 12 13 13 13 14 14 14 14 14 14 14 14 14 14 14 14 14 14 14 14 14 14 13 13 13 13 13 13 13 12 12 12 12 12 12 12 12 12
8 9 9 10 10 10 11 12 12 12 13 13 13 13 14 14 14 14 14 14 14 14 14 14 14 13 13 13 13 13 13 13 13 13 12 12 12 12 12 12 12 12 12 11
Wind_Speed
3 3 5 8 8 6 4 3 5 7 5 2 4 6 7 4 3 4 4 5 5 5 3 3 4 5 5 4 5 5 5 4 4 3 2 2 1 1 1 1 2 2 3 3
3 5 9 5 4 4 4 4 5 6 4 2 4 5 5 3 4 5 6 5 5 3 2 3 4 4 5 5 4 5 4 5 4 3 3 2 2 1 1 1 1 2 3 3
8 7 4 4 3 4 5 6 6 5 3 3 1 5 4 3 1 2 4 4 4 5 5 4 4 4 5 5 5 4 4 4 4 4 3 3 3 2 2 1 1 1 2 2
6 6 4 5 5 5 6 7 6 4 1 3 0 4 7 4 3 3 4 4 5 5 5 5 5 5 5 5 5 4 4 4 4 5 5 5 3 2 1 1 1 1 1 1
7 5 5 6 7 6 6 2 3 2 2 1 1 2 7 2 4 6 5 5 5 6 6 6 6 5 4 4 4 4 4 4 3 4 5 5 3 2 2 2 2 1 1 1
6 3 5 6 4 4 3 3 4 4 3 2 4 4 6 4 5 5 4 4 4 5 5 5 4 4 3 3 4 4 4 3 3 4 4 5 5 4 4 3 2 1 1 1
3 3 3 3 1 1 4 4 3 3 2 5 3 3 7 5 4 4 4 4 4 5 5 6 5 5 4 4 4 4 4 3 3 3 3 4 4 4 4 3 3 2 1 1
4 5 4 4 5 4 4 7 6 4 4 4 2 5 5 4 2 1 1 2 3 5 5 6 6 6 5 5 4 4 4 3 2 3 2 2 3 3 2 3 3 2 2 1
6 5 3 3 3 6 4 3 4 5 1 1 5 5 5 2 2 2 1 1 2 4 5 6 5 6 6 6 5 5 4 3 2 2 2 2 2 3 3 2 2 2 2 2
7 4 3 1 4 3 5 6 5 4 3 3 5 4 4 4 3 1 0 2 2 3 4 5 4 5 5 5 4 4 4 4 3 2 3 3 2 2 3 3 3 2 2 2
5 5 1 1 3 3 3 3 4 4 4 4 3 6 4 5 4 3 2 2 3 4 5 5 4 3 3 4 4 4 3 3 3 3 2 3 2 2 2 2 2 2 2 2
4 5 2 3 2 3 4 5 6 4 3 4 3 6 3 3 3 3 2 1 2 3 4 4 4 4 5 5 4 4 4 3 3 3 3 3 3 3 3 2 1 2 2 2
6 5 2 3 3 1 2 3 4 4 4 4 4 6 2 2 1 0 1 2 3 3 4 4 4 4 5 5 4 4 4 4 3 4 4 3 2 2 2 2 1 1 2 2
6 4 6 7 6 4 3 2 4 5 4 4 6 6 5 2 1 1 1 3 4 4 4 4 4 3 4 5 5 5 4 4 4 4 4 3 2 2 2 2 2 2 2 2
4 4 3 3 2 3 3 3 4 5 6 6 6 5 6 4 3 3 2 3 4 4 4 4 4 4 4 4 4 4 4 4 4 4 4 3 2 2 2 2 1 2 2 1
3 3 2 1 1 2 0 1 3 4 3 4 3 4 3 2 1 1 2 4 4 4 4 4 5 5 5 5 5 5 4 4 5 5 4 3 2 2 2 2 2 2 2 1
1 4 3 2 2 1 2 2 3 2 1 3 5 4 1 1 1 1 2 4 4 5 5 5 6 6 6 5 5 5 4 4 4 4 3 3 2 1 1 2 2 2 2 2
5 4 3 2 2 4 4 1 2 2 1 2 2 1 1 1 1 0 2 3 3 3 4 4 4 5 4 4 4 4 4 4 4 3 3 2 2 2 1 1 2 2 2 1
4 6 4 4 3 3 2 0 1 3 2 1 2 0 1 2 3 3 0 2 3 4 4 4 5 4 4 5 5 5 4 4 4 4 3 3 3 2 1 1 2 2 2 1
4 4 5 4 4 5 4 3 2 2 1 2 2 2 0 2 2 3 2 0 1 1 1 2 3 3 4 4 5 5 5 4 4 5 5 4 4 4 3 3 2 2 2 2
3 4 3 3 3 4 3 5 1 3 3 3 0 1 1 2 3 4 2 1 1 1 1 2 3 4 4 4 5 5 5 6 5 4 4 4 4 4 4 3 2 2 2 2
2 2 2 3 2 4 5 3 2 3 2 1 1 1 0 1 2 2 1 1 0 1 1 2 3 2 2 4 6 5 6 5 4 4 4 4 3 3 3 3 2 2 2 2
1 1 2 3 3 2 2 1 2 1 0 1 1 2 1 1 2 2 1 0 0 0 0 1 2 2 1 3 5 6 5 4 4 4 4 3 3 3 3 3 3 2 2 2
2 2 1 1 2 3 3 4 4 3 2 3 3 3 2 2 2 1 1 0 0 0 0 1 2 2 2 3 4 5 4 4 5 4 4 3 3 2 2 2 3 3 3 3
2 2 2 1 2 4 4 4 4 5 5 4 4 2 1 1 1 1 1 1 1 0 0 1 3 3 3 2 2 3 3 4 4 4 3 3 3 3 2 2 2 3 4 4
2 1 1 3 3 2 4 4 4 4 5 4 4 4 3 1 1 1 1 1 1 1 1 1 1 2 2 1 2 2 3 5 5 4 4 3 3 3 3 2 1 1 3 4
Wind_Direction
105 97 217 219 202 205 199 217 263 270 276 256 251 265 276 265 219 212 211 210 197 203 197 160 149 143 139 138 146 157 157 153 143 138 142 137 153 157 140 154 151 147 140 147
61 248 234 211 198 194 205 235 260 284 290 231 254 277 276 250 215 206 205 209 200 182 154 155 150 151 153 153 148 148 153 152 159 159 155 144 136 139 128 98 106 129 142 151
195 235 195 179 207 204 230 214 228 242 314 348 308 310 291 285 260 207 197 197 194 182 180 173 163 163 158 155 155 156 153 148 147 134 116 98 85 76 69 65 87 112 137 139
225 247 207 211 226 193 252 235 208 216 254 293 330 275 284 273 289 244 219 202 197 188 175 173 168 164 170 172 156 145 149 141 137 137 139 141 142 148 175 156 128 88 106 119
230 209 190 213 226 189 221 224 166 187 170 306 315 207 283 301 272 262 245 223 207 193 179 175 171 171 168 157 147 144 137 131 131 140 149 145 138 140 127 108 97 82 65 87
234 217 197 214 223 189 165 63 52 55 78 281 242 192 277 244 238 261 250 231 210 186 172 165 153 134 131 127 129 133 134 130 135 140 145 150 149 143 133 126 121 100 73 66
275 274 242 188 185 81 107 97 27 351 353 254 248 205 251 258 240 237 244 229 200 171 162 162 158 152 151 149 147 144 144 144 144 146 151 155 155 156 156 157 160 157 144 85
196 267 232 187 184 186 174 149 165 207 229 275 288 237 257 276 276 258 214 188 158 154 161 172 177 170 168 166 159 154 151 145 145 149 156 154 152 155 161 161 159 166 164 167
184 237 259 205 174 142 141 169 166 140 164 264 273 279 300 299 341 9 40 103 159 165 161 169 171 169 168 169 170 164 153 137 145 154 146 140 149 156 161 154 147 162 162 153
163 207 262 223 76 49 143 145 108 127 163 250 284 272 259 274 279 301 214 190 181 158 154 155 164 169 166 164 152 142 142 148 160 152 154 149 150 153 154 149 153 161 163 137
146 165 283 87 161 190 105 106 118 134 164 173 253 268 234 223 215 212 220 199 179 174 168 161 153 152 143 134 134 135 137 131 138 144 137 126 129 127 127 144 164 170 162 152
153 133 202 249 254 169 162 166 149 160 216 187 204 264 287 199 195 183 190 175 158 153 152 145 142 140 138 141 143 146 148 153 161 150 138 135 125 116 116 124 139 146 148 151
145 127 107 350 339 37 138 154 147 140 138 170 194 260 325 74 54 141 165 158 141 131 129 129 129 135 147 153 154 159 163 170 158 145 141 131 126 130 144 154 141 134 137 131
129 127 169 200 217 199 204 192 164 142 166 205 225 253 297 312 287 267 199 167 153 148 147 146 145 150 158 161 159 160 165 162 152 143 145 152 166 177 174 154 140 145 148 135
110 150 191 220 219 172 204 202 180 195 198 198 231 239 266 265 235 215 187 159 145 144 149 154 160 166 161 161 156 152 159 159 153 149 159 174 182 164 134 131 150 152 147 154
80 146 134 317 169 147 200 253 195 216 216 215 232 263 263 267 155 150 170 167 169 172 172 169 170 166 169 174 170 162 162 161 154 159 171 168 162 153 152 164 168 159 167 169
110 139 134 224 229 46 287 245 201 183 185 189 222 244 303 355 337 204 187 181 188 185 186 185 185 184 183 186 178 171 172 164 162 169 171 170 172 182 192 178 161 178 193 185
155 137 136 147 106 220 235 201 163 154 236 197 201 225 226 247 291 248 183 184 201 203 204 201 195 188 184 178 168 160 158 160 166 172 182 186 184 199 200 180 196 210 204 202
171 148 132 136 169 256 271 227 169 181 257 251 176 167 9 51 45 4 336 180 204 211 208 198 190 184 175 175 173 162 162 161 166 185 199 204 199 198 200 226 237 235 214 222
69 103 121 136 157 214 243 292 286 138 274 318 128 146 126 63 56 294 315 244 239 243 198 181 169 156 170 179 165 160 169 171 193 206 209 205 198 197 209 226 244 252 234 237
41 51 108 146 181 257 295 314 4 146 246 301 217 184 145 176 221 262 307 284 223 209 176 158 161 174 187 171 157 168 178 196 207 202 198 196 198 202 209 213 219 222 228 230
148 139 159 140 161 253 337 30 107 215 277 343 326 245 199 254 290 303 295 271 95 56 74 132 154 190 185 164 164 182 205 208 191 181 186 195 197 203 204 197 214 205 196 212
79 186 184 178 202 279 340 339 288 207 61 304 278 279 235 252 280 286 275 257 178 54 86 130 149 171 185 178 179 197 218 196 179 180 189 198 201 204 200 195 206 210 194 203
351 23 82 14 311 318 343 360 5 13 344 307 285 268 228 237 255 269 270 297 330 341 158 145 146 165 199 206 206 212 208 179 174 184 198 198 200 212 204 197 201 202 206 214
303 3 9 307 299 347 354 4 355 351 350 347 343 333 296 234 262 243 226 237 230 241 202 161 175 199 220 214 227 220 192 173 178 188 197 199 202 204 200 199 214 214 218 215
313 195 191 240 252 222 275 303 328 345 344 340 351 354 348 356 266 273 228 234 208 189 169 159 184 197 224 212 238 234 201 180 178 191 201 206 208 207 200 196 250 282 235 233
Height
1481 1488 1492 1489 1488 1488 1490 1494 1496 1491 1483 1486 1487 1485 1480 1477 1478 1478 1478 1478 1478 1479 1480 1482 1484 1485 1487 1490 1492 1493 1495 1497 1498 1499 1500 1501 1502 1504 1505 1506 1507 1507 1508 1509
1486 1488 1481 1481 1483 1486 1489 1493 1493 1488 1482 1484 1486 1484 1478 1476 1475 1475 1475 1476 1477 1478 1479 1481 1482 1484 1486 1488 1490 1491 1494 1496 1497 1499 1500 1501 1502 1503 1504 1505 1506 1506 1507 1508
1484 1480 1476 1479 1482 1486 1487 1491 1489 1489 1485 1484 1485 1487 1480 1475 1474 1474 1475 1475 1476 1476 1477 1479 1481 1482 1484 1486 1488 1490 1492 1494 1496 1498 1499 1500 1501 1502 1503 1504 1505 1506 1507 1508
1480 1475 1475 1478 1480 1481 1488 1479 1481 1485 1492 1496 1490 1501 1484 1477 1475 1473 1473 1473 1473 1475 1476 1478 1480 1481 1483 1485 1487 1489 1491 1493 1495 1497 1498 1499 1499 1500 1501 1503 1504 1505 1506 1507
1476 1472 1473 1477 1475 1474 1478 1474 1479 1483 1490 1497 1494 1500 1491 1479 1478 1473 1471 1471 1471 1473 1475 1477 1478 1480 1482 1485 1487 1489 1491 1493 1494 1496 1497 1498 1499 1500 1501 1503 1504 1505 1506 1506
1470 1467 1468 1469 1468 1469 1472 1477 1482 1489 1496 1505 1495 1499 1493 1482 1475 1471 1469 1469 1470 1472 1474 1476 1478 1480 1482 1484 1486 1489 1490 1492 1493 1495 1496 1497 1498 1500 1501 1501 1503 1504 1505 1505
1473 1468 1465 1465 1469 1470 1474 1488 1503 1505 1510 1506 1491 1493 1489 1472 1469 1468 1467 1467 1468 1470 1473 1475 1477 1479 1481 1483 1485 1488 1489 1491 1493 1494 1495 1497 1498 1499 1500 1501 1502 1503 1504 1505
1480 1479 1466 1463 1467 1472 1475 1483 1502 1509 1510 1504 1493 1492 1480 1468 1467 1466 1466 1466 1467 1469 1471 1474 1476 1477 1480 1482 1484 1486 1488 1490 1492 1493 1494 1496 1498 1499 1500 1501 1502 1503 1503 1504
1478 1477 1462 1460 1461 1466 1476 1482 1483 1496 1500 1505 1497 1486 1474 1466 1466 1465 1465 1465 1466 1467 1470 1472 1474 1476 1479 1481 1483 1485 1487 1489 1491 1493 1494 1496 1497 1498 1499 1500 1501 1502 1503 1504
1465 1474 1465 1461 1462 1465 1469 1476 1488 1497 1505 1507 1496 1489 1483 1470 1468 1466 1466 1465 1466 1467 1468 1471 1473 1475 1477 1480 1482 1485 1487 1488 1490 1492 1494 1495 1497 1498 1499 1500 1501 1502 1502 1503
1461 1472 1470 1466 1468 1471 1474 1478 1484 1493 1496 1503 1504 1491 1468 1465 1464 1465 1464 1464 1465 1466 1467 1469 1471 1474 1476 1479 1481 1484 1486 1488 1490 1491 1493 1494 1496 1497 1498 1499 1500 1501 1502 1502
1460 1471 1477 1470 1463 1462 1466 1472 1480 1491 1494 1495 1497 1488 1462 1462 1462 1462 1463 1463 1464 1465 1467 1469 1471 1473 1475 1478 1480 1483 1485 1487 1489 1490 1492 1494 1495 1496 1497 1498 1499 1500 1500 1501
1458 1470 1481 1479 1474 1468 1468 1469 1473 1480 1489 1494 1495 1483 1462 1461 1461 1462 1462 1463 1464 1465 1466 1468 1470 1472 1474 1477 1479 1482 1484 1486 1488 1489 1491 1492 1493 1494 1496 1497 1498 1498 1499 1499
1453 1467 1475 1480 1475 1468 1469 1468 1471 1478 1487 1489 1483 1474 1465 1463 1463 1462 1462 1463 1464 1465 1466 1468 1469 1471 1473 1476 1478 1480 1482 1485 1486 1488 1489 1491 1492 1493 1494 1495 1496 1497 1497 1497
1453 1465 1465 1465 1462 1463 1465 1466 1468 1472 1474 1478 1473 1470 1465 1462 1462 1461 1462 1462 1463 1464 1466 1467 1469 1471 1473 1475 1478 1480 1481 1483 1485 1487 1488 1489 1491 1491 1492 1493 1494 1495 1495 1495
1456 1463 1464 1466 1462 1462 1465 1464 1465 1466 1467 1469 1468 1467 1461 1461 1461 1460 1461 1462 1462 1463 1465 1467 1469 1471 1473 1475 1477 1479 1481 1482 1484 1486 1487 1488 1489 1490 1491 1492 1493 1493 1494 1494
1460 1463 1469 1472 1465 1463 1470 1465 1463 1464 1463 1465 1467 1465 1460 1460 1460 1460 1460 1461 1461 1462 1464 1466 1467 1469 1471 1474 1476 1477 1480 1482 1483 1485 1486 1487 1488 1489 1489 1490 1491 1491 1492 1492
1459 1464 1471 1474 1471 1478 1468 1459 1459 1461 1462 1461 1461 1461 1461 1460 1460 1460 1460 1460 1461 1462 1463 1465 1466 1468 1470 1473 1475 1477 1479 1480 1482 1483 1484 1485 1486 1487 1488 1488 1489 1489 1490 1490
1454 1460 1470 1476 1477 1472 1464 1459 1460 1462 1463 1460 1461 1460 1460 1459 1459 1459 1459 1460 1461 1462 1463 1464 1466 1468 1470 1472 1473 1475 1477 1478 1480 1481 1483 1484 1485 1486 1486 1487 1487 1488 1488 1488
1455 1458 1467 1473 1474 1476 1466 1457 1456 1460 1465 1460 1459 1460 1461 1460 1463 1462 1460 1460 1461 1462 1463 1464 1465 1467 1469 1470 1472 1473 1475 1476 1478 1480 1481 1482 1483 1484 1485 1485 1486 1486 1486 1486
1462 1464 1468 1471 1472 1469 1461 1457 1455 1467 1468 1460 1459 1459 1460 1461 1462 1461 1460 1460 1460 1461 1462 1464 1465 1466 1467 1469 1470 1471 1473 1474 1477 1478 1480 1481 1482 1483 1483 1484 1484 1484 1484 1484
1466 1468 1470 1472 1474 1472 1460 1458 1462 1464 1460 1459 1459 1459 1459 1459 1459 1459 1459 1459 1459 1460 1461 1462 1464 1465 1466 1468 1469 1470 1471 1473 1475 1477 1478 1479 1480 1481 1482 1482 1482 1482 1482 1482
1466 1467 1468 1469 1471 1464 1461 1461 1461 1460 1459 1459 1459 1459 1458 1458 1457 1458 1458 1458 1459 1459 1460 1461 1463 1464 1465 1466 1467 1468 1470 1471 1473 1475 1476 1477 1478 1479 1480 1480 1480 1480 1480 1480
1466 1465 1467 1468 1465 1463 1462 1461 1460 1460 1459 1458 1458 1457 1457 1457 1456 1456 1457 1457 1457 1458 1459 1460 1462 1462 1463 1465 1466 1467 1468 1470 1471 1472 1473 1474 1476 1477 1477 1478 1478 1478 1478 1478
1468 1467 1468 1467 1465 1463 1461 1461 1461 1460 1459 1458 1457 1456 1456 1455 1455 1455 1455 1456 1456 1457 1458 1459 1460 1461 1462 1463 1464 1465 1466 1468 1469 1470 1471 1472 1473 1474 1474 1475 1476 1476 1476 1476
1469 1469 1470 1468 1465 1465 1463 1462 1462 1460 1459 1458 1456 1455 1455 1454 1454 1454 1454 1454 1455 1456 1457 1458 1459 1459 1460 1461 1462 1463 1464 1465 1466 1467 1468 1469 1470 1471 1472 1472 1473 1473 1474 1474